Waseca, MN

5:52 PM CDT on September 19, 2017 (GMT -0500)
Waseca Municipal

Weather History for KACQ - December, 2012

Change the Weather History Date:

Sunday, December 9, 2012

  Actual Average Record
Temperature  
Mean Temperature 28 °F -  
Max Temperature 33 °F 26 °F 60 °F (1939)
Min Temperature 23 °F 8 °F -21 °F (1958)
Degree Days  
Heating Degree Days 36    
Moisture  
Dew Point 30 °F    
Average Humidity 89    
Maximum Humidity 93    
Minimum Humidity 80    
Precipitation  
Precipitation 0.09 in - - ()
Sea Level Pressure  
Sea Level Pressure 29.86 in    
Wind  
Wind Speed 12 mph (ESE)    
Max Wind Speed 22 mph    
Max Gust Speed 28 mph    
Visibility 3 miles    
Events Snow    
Averages and records for this station are not official NWS values.
T = Trace of Precipitation, MM = Missing Value Source: NWS Daily Summary

Daily Weather History Graph

Daily Weather History Graph

Search for Another Location

Airport or City:

Trip Planner

Search our weather history database for the weather conditions in past years. The results will help you decide how hot, cold, wet, or windy it might be!

Date:

Astronomy

Dec. 09, 2012 Rise Set
Actual Time 7:37 AM CST 4:35 PM CST
Civil Twilight 7:04 AM CST 5:08 PM CST
Nautical Twilight 6:28 AM CST 5:45 PM CST
Astronomical Twilight 5:53 AM CST 6:20 PM CST
Moon 3:04 AM CST (12/9) 1:48 PM CST (12/9)
Length of Visible Light 10h 03m
Length of Day
8h 58m
Waning Crescent, 18% of the Moon is Illuminated
Dec 9
Waning Crescent
Dec 13
New
Dec 19
First Quarter
Dec 28
Full
Jan 4
Last Quarter

Hourly Weather History & Observations

Time (CST) Temp. Windchill Dew Point Humidity Pressure Visibility Wind Dir Wind Speed Gust Speed Precip Events Conditions
12:13 AM 33.8 °F 25.3 °F 28.4 °F 81% 29.98 in 1.0 mi SE 11.5 mph - N/A Snow Light Snow
12:33 AM 33.8 °F 27.7 °F 30.2 °F 87% 29.98 in 1.0 mi SE 6.9 mph - N/A Snow Snow
12:53 AM 33.8 °F 26.4 °F 30.2 °F 87% 29.96 in 0.8 mi ESE 9.2 mph - N/A Snow Snow
1:13 AM 33.8 °F 26.4 °F 30.2 °F 87% 29.96 in 0.8 mi ESE 9.2 mph - N/A Snow Snow
1:33 AM 33.8 °F 25.3 °F 30.2 °F 87% 29.96 in 2.0 mi ESE 11.5 mph - N/A Snow Light Snow
1:54 AM 33.8 °F 25.8 °F 30.2 °F 87% 29.95 in 4.0 mi ESE 10.4 mph - N/A Snow Light Snow
2:13 AM 33.8 °F 24.3 °F 30.2 °F 87% 29.95 in 5.0 mi East 13.8 mph - N/A Snow Light Snow
2:34 AM 33.8 °F 25.3 °F 30.2 °F 87% 29.95 in 2.0 mi ESE 11.5 mph - N/A Snow Light Snow
2:53 AM 33.8 °F 26.4 °F 30.2 °F 87% 29.95 in 5.0 mi ESE 9.2 mph - N/A Snow Light Snow
3:13 AM 33.8 °F 25.8 °F 30.2 °F 87% 29.94 in 7.0 mi ESE 10.4 mph 17.3 mph N/A   Overcast
3:34 AM 33.8 °F 26.4 °F 30.2 °F 87% 29.95 in 7.0 mi SE 9.2 mph - N/A   Overcast
3:53 AM 33.8 °F 26.4 °F 30.2 °F 87% 29.95 in 7.0 mi ESE 9.2 mph - N/A   Overcast
4:13 AM 33.8 °F 26.4 °F 30.2 °F 87% 29.94 in 5.0 mi ESE 9.2 mph - N/A   Haze
4:33 AM 33.8 °F 25.8 °F 30.2 °F 87% 29.93 in 5.0 mi ESE 10.4 mph - N/A   Haze
4:53 AM 33.8 °F 24.3 °F 30.2 °F 87% 29.91 in 5.0 mi East 13.8 mph - N/A   Haze
5:14 AM 33.8 °F 24.3 °F 30.2 °F 87% 29.90 in 5.0 mi ESE 13.8 mph - N/A   Haze
5:33 AM 33.8 °F 24.8 °F 30.2 °F 87% 29.90 in 3.0 mi ESE 12.7 mph - N/A   Haze
5:53 AM 33.8 °F 24.8 °F 30.2 °F 87% 29.90 in 3.0 mi East 12.7 mph - N/A   Haze
6:14 AM 33.8 °F 23.9 °F 30.2 °F 87% 29.88 in 5.0 mi ESE 15.0 mph - N/A   Haze
6:33 AM 33.8 °F 23.2 °F 30.2 °F 87% 29.88 in 7.0 mi ESE 17.3 mph - N/A   Overcast
6:53 AM 33.8 °F 23.5 °F 30.2 °F 87% 29.89 in 7.0 mi ESE 16.1 mph 21.9 mph N/A   Overcast
7:14 AM 33.8 °F 23.9 °F 30.2 °F 87% 29.89 in 5.0 mi ESE 15.0 mph - N/A Snow Light Snow
7:33 AM 33.8 °F 24.8 °F 30.2 °F 87% 29.89 in 2.5 mi ESE 12.7 mph - N/A Snow Light Snow
7:53 AM 33.8 °F 24.8 °F 30.2 °F 87% 29.89 in 1.2 mi ESE 12.7 mph 17.3 mph N/A Snow Light Snow
8:14 AM 33.8 °F 25.3 °F 30.2 °F 87% 29.88 in 0.5 mi ESE 11.5 mph - N/A Snow Light Snow
8:33 AM 33.8 °F 23.9 °F 30.2 °F 87% 29.86 in 0.8 mi ESE 15.0 mph 19.6 mph N/A Snow Light Snow
8:53 AM 33.8 °F 23.2 °F 30.2 °F 87% 29.87 in 1.2 mi ESE 17.3 mph - N/A Snow Light Snow
9:13 AM 33.8 °F 23.5 °F 30.2 °F 87% 29.87 in 1.5 mi ESE 16.1 mph 20.7 mph N/A Snow Light Snow
9:33 AM 33.8 °F 24.3 °F 30.2 °F 87% 29.87 in 2.0 mi ESE 13.8 mph - N/A   Haze
9:54 AM 33.8 °F 23.5 °F 32.0 °F 93% 29.86 in 4.0 mi ESE 16.1 mph - 0.01 in Snow Light Snow
10:13 AM 33.8 °F 23.9 °F 30.2 °F 87% 29.86 in 1.2 mi ESE 15.0 mph 20.7 mph 0.01 in Snow Light Snow
10:33 AM 33.8 °F 24.8 °F 30.2 °F 87% 29.86 in 1.2 mi ESE 12.7 mph - 0.02 in Snow Light Snow
10:54 AM 33.8 °F 24.8 °F 30.2 °F 87% 29.85 in 1.2 mi ESE 12.7 mph - 0.03 in Snow Light Snow
11:14 AM 33.8 °F 24.3 °F 30.2 °F 87% 29.84 in 1.0 mi ESE 13.8 mph 18.4 mph N/A Snow Light Snow
11:33 AM 33.8 °F 25.3 °F 32.0 °F 93% 29.83 in 0.8 mi ESE 11.5 mph 17.3 mph 0.01 in Snow Light Snow
11:54 AM 33.8 °F 25.8 °F 30.2 °F 87% 29.82 in 0.8 mi ESE 10.4 mph - 0.01 in Snow Light Snow
12:14 PM 33.8 °F 26.4 °F 30.2 °F 87% 29.81 in 0.8 mi ESE 9.2 mph - 0.01 in Snow Light Snow
12:33 PM 33.8 °F 25.8 °F 32.0 °F 93% 29.81 in 0.5 mi ESE 10.4 mph - 0.01 in Snow Light Snow
12:54 PM 33.8 °F 26.4 °F 30.2 °F 87% 29.79 in 0.5 mi ESE 9.2 mph - 0.03 in Snow Light Snow
1:14 PM 33.8 °F 25.8 °F 32.0 °F 93% 29.78 in 0.5 mi ESE 10.4 mph - 0.01 in Snow Snow
1:33 PM 33.8 °F 25.8 °F 32.0 °F 93% 29.78 in 0.8 mi ESE 10.4 mph - 0.01 in Snow Light Snow
1:54 PM 33.8 °F 25.8 °F 32.0 °F 93% 29.78 in 3.0 mi ESE 10.4 mph - 0.01 in   Overcast
2:13 PM 33.8 °F 28.6 °F 32.0 °F 93% 29.78 in 5.0 mi SSE 5.8 mph - N/A   Overcast
2:33 PM 33.8 °F 27.0 °F 32.0 °F 93% 29.77 in 2.0 mi ESE 8.1 mph - N/A   Overcast
2:54 PM 33.8 °F 27.0 °F 32.0 °F 93% 29.77 in 2.0 mi East 8.1 mph - N/A   Overcast
3:13 PM 33.8 °F 27.0 °F 32.0 °F 93% 29.78 in 1.8 mi ESE 8.1 mph - N/A   Overcast
3:33 PM 33.8 °F 27.7 °F 32.0 °F 93% 29.78 in 1.2 mi East 6.9 mph - N/A   Overcast
3:54 PM 33.8 °F 26.4 °F 32.0 °F 93% 29.78 in 1.2 mi East 9.2 mph - N/A   Overcast
4:14 PM 33.8 °F 27.7 °F 32.0 °F 93% 29.78 in 1.0 mi East 6.9 mph - N/A   Overcast
4:34 PM 33.8 °F 30.8 °F 32.0 °F 93% 29.78 in 1.2 mi SE 3.5 mph - N/A   Overcast
4:54 PM 33.8 °F - 32.0 °F 93% 29.78 in 5.0 mi Calm Calm - N/A   Overcast
5:13 PM 33.8 °F 25.3 °F 32.0 °F 93% 29.79 in 3.0 mi WSW 11.5 mph - N/A   Overcast
5:34 PM 33.8 °F 26.4 °F 32.0 °F 93% 29.79 in 2.5 mi WSW 9.2 mph - N/A   Overcast
5:53 PM 33.8 °F 26.4 °F 32.0 °F 93% 29.79 in 2.5 mi WSW 9.2 mph - N/A   Overcast
6:14 PM 33.8 °F 26.4 °F 32.0 °F 93% 29.79 in 2.0 mi West 9.2 mph - N/A   Overcast
6:33 PM 33.8 °F 25.8 °F 32.0 °F 93% 29.80 in 2.0 mi West 10.4 mph - N/A   Overcast
6:54 PM 33.8 °F 25.3 °F 32.0 °F 93% 29.79 in 3.0 mi North 11.5 mph - N/A Snow Light Snow
7:13 PM 33.8 °F 24.3 °F 32.0 °F 93% 29.80 in 3.0 mi North 13.8 mph - N/A   Overcast
7:34 PM 33.8 °F 24.3 °F 32.0 °F 93% 29.81 in 1.8 mi North 13.8 mph - N/A Snow Light Snow
7:53 PM 32.0 °F 21.2 °F 28.4 °F 87% 29.82 in 2.5 mi North 16.1 mph - N/A Snow Light Snow
8:14 PM 32.0 °F 21.2 °F 28.4 °F 87% 29.82 in 1.8 mi North 16.1 mph - N/A Snow Light Snow
8:34 PM 32.0 °F 20.8 °F 28.4 °F 87% 29.83 in 3.0 mi North 17.3 mph 23.0 mph N/A Snow Light Snow
8:53 PM 32.0 °F 20.5 °F 28.4 °F 87% 29.84 in 4.0 mi North 18.4 mph - N/A Snow Light Snow
9:14 PM 32.0 °F 21.2 °F 28.4 °F 87% 29.85 in 7.0 mi North 16.1 mph - N/A Snow Light Snow
9:34 PM 32.0 °F 21.2 °F 28.4 °F 87% 29.85 in 10.0 mi NNW 16.1 mph 20.7 mph N/A   Overcast
9:53 PM 32.0 °F 20.8 °F 28.4 °F 87% 29.86 in 10.0 mi NNW 17.3 mph - N/A   Overcast
10:13 PM 32.0 °F 20.5 °F 28.4 °F 87% 29.87 in 7.0 mi NW 18.4 mph - N/A   Overcast
10:53 PM 26.6 °F 12.4 °F 23.0 °F 86% 29.88 in 5.0 mi NNW 21.9 mph - N/A   Overcast
11:13 PM 26.6 °F 13.1 °F 21.2 °F 80% 29.89 in 4.0 mi NW 19.6 mph - N/A   Haze
11:33 PM 24.8 °F 10.0 °F 21.2 °F 86% 29.90 in 4.0 mi NW 21.9 mph 26.5 mph N/A   Overcast
11:54 PM 23.0 °F 7.6 °F 17.6 °F 80% 29.91 in 2.5 mi NW 21.9 mph 27.6 mph N/A   Haze